| time (UTC) | temp F | wind direction | speed MPH | gust MPH | rain 1hr in | rain 24hr in | rain mn in | humidity % | barometer mb |
| 20260905214935 | 61 | 276 | 5.0 | 5.0 | 0.00 | 0.03 | 0.03 | 62 | |
| 20260905213934 | 63 | 294 | 8.0 | 9.0 | 0.00 | 0.03 | 0.03 | 58 | |
| 20260905211857 | 59 | 288 | 0.0 | 0.0 | 0.00 | 0.03 | 0.03 | 69 | |
| 20260905210844 | 59 | 270 | 0.0 | 0.0 | 0.00 | 0.03 | 0.03 | 68 | |
| 20260905205831 | 59 | 286 | 0.0 | 0.0 | 0.00 | 0.03 | 0.03 | 69 | |
| 20260905203805 | 59 | 306 | 2.0 | 2.0 | 0.00 | 0.03 | 0.03 | 67 | |
| 20260905202805 | 59 | 282 | 1.0 | 1.0 | 0.00 | 0.03 | 0.03 | 67 | |
| 20260905201805 | 60 | 228 | 0.0 | 0.0 | 0.00 | 0.03 | 0.03 | 66 | |
| 20260905200803 | 61 | 306 | 0.0 | 0.0 | 0.00 | 0.03 | 0.03 | 62 | |
| 20260905194747 | 62 | 306 | 4.0 | 4.0 | 0.00 | 0.03 | 0.03 | 58 | |
| 20260905193746 | 62 | 300 | 4.0 | 5.0 | 0.00 | 0.03 | 0.03 | 57 | |
| 20260905192746 | 62 | 314 | 3.0 | 3.0 | 0.00 | 0.03 | 0.03 | 59 | |
| 20260905190730 | 63 | 294 | 4.0 | 4.0 | 0.00 | 0.03 | 0.03 | 57 | |
| 20260905185730 | 62 | 276 | 3.0 | 3.0 | 0.00 | 0.03 | 0.03 | 58 | |
| 20260905184717 | 60 | 330 | 2.0 | 2.0 | 0.00 | 0.03 | 0.03 | 62 | |
| 20260905182650 | 63 | 281 | 1.0 | 1.0 | 0.00 | 0.03 | 0.03 | 56 | |
| 20260905181638 | 63 | 312 | 3.0 | 3.0 | 0.00 | 0.03 | 0.03 | 55 | |
| 20260905180637 | 64 | 282 | 3.0 | 3.0 | 0.00 | 0.03 | 0.03 | 55 | |
| 20260905174559 | 64 | 306 | 2.0 | 2.0 | 0.00 | 0.03 | 0.03 | 54 | |
| 20260905173546 | 65 | 294 | 2.0 | 2.0 | 0.00 | 0.03 | 0.03 | 53 | |
| 20260905172546 | 65 | 319 | 2.0 | 2.0 | 0.00 | 0.03 | 0.03 | 53 | |
| 20260905170519 | 65 | 296 | 2.0 | 2.0 | 0.00 | 0.03 | 0.03 | 52 | |
| 20260905165519 | 66 | 269 | 2.0 | 2.0 | 0.00 | 0.03 | 0.03 | 50 | |
| 20260905164517 | 67 | 306 | 2.0 | 2.0 | 0.00 | 0.03 | 0.03 | 49 | |
| 20260905162452 | 68 | 286 | 6.0 | 6.0 | 0.00 | 0.03 | 0.03 | 46 | |
| 20260905161450 | 68 | 290 | 4.0 | 4.0 | 0.00 | 0.03 | 0.03 | 47 | |
| 20260905160446 | 68 | 308 | 5.0 | 5.0 | 0.00 | 0.03 | 0.03 | 46 | |
| 20260905154421 | 68 | 270 | 4.0 | 4.0 | 0.00 | 0.03 | 0.03 | 45 | |
| 20260905153420 | 68 | 302 | 6.0 | 8.0 | 0.00 | 0.03 | 0.03 | 44 | |
| 20260905152409 | 68 | 297 | 4.0 | 5.0 | 0.00 | 0.03 | 0.03 | 44 | |
| 20260905150330 | 70 | 274 | 6.0 | 6.0 | 0.00 | 0.03 | 0.03 | 43 | |
| 20260905145318 | 70 | 312 | 6.0 | 8.0 | 0.00 | 0.03 | 0.03 | 43 | |
| 20260905144318 | 70 | 307 | 9.0 | 10.0 | 0.00 | 0.03 | 0.03 | 43 | |
| 20260905142251 | 71 | 278 | 6.0 | 8.0 | 0.00 | 0.03 | 0.03 | 44 | |
| 20260905141239 | 71 | 269 | 8.0 | 10.0 | 0.00 | 0.03 | 0.03 | 45 | |
| 20260905140238 | 71 | 282 | 6.0 | 6.0 | 0.00 | 0.03 | 0.03 | 45 | |
| 20260905134220 | 71 | 236 | 2.0 | 2.0 | 0.00 | 0.03 | 0.03 | 44 | |
| 20260905133207 | 71 | 299 | 8.0 | 10.0 | 0.00 | 0.03 | 0.03 | 45 | |
| 20260905132206 | 69 | 292 | 6.0 | 6.0 | 0.00 | 0.03 | 0.03 | 48 | |
| 20260905130128 | 70 | 318 | 7.0 | 8.0 | 0.00 | 0.03 | 0.03 | 44 | |
| 20260905125118 | 70 | 296 | 10.0 | 10.0 | 0.00 | 0.03 | 0.03 | 44 | |
| 20260905124107 | 70 | 265 | 7.0 | 8.0 | 0.00 | 0.03 | 0.03 | 45 | |
| 20260905122032 | 69 | 278 | 4.0 | 4.0 | 0.00 | 0.03 | 0.03 | 50 | |
| 20260905121022 | 67 | 288 | 5.0 | 6.0 | 0.00 | 0.03 | 0.03 | 54 | |
| 20260905120010 | 66 | 267 | 4.0 | 4.0 | 0.00 | 0.03 | 0.03 | 57 | |
| 20260905113934 | 67 | 232 | 5.0 | 6.0 | 0.00 | 0.03 | 0.03 | 55 | |
| 20260905112922 | 67 | 300 | 6.0 | 6.0 | 0.00 | 0.03 | 0.03 | 56 | |
| 20260905111910 | 66 | 10 | 6.0 | 6.0 | 0.00 | 0.03 | 0.03 | 59 | |
| 20260905105833 | 66 | 280 | 7.0 | 9.0 | 0.00 | 0.03 | 0.03 | 59 | |
| 20260905104822 | 66 | 308 | 3.0 | 4.0 | 0.00 | 0.03 | 0.03 | 63 | |
| 20260905103822 | 66 | 319 | 4.0 | 4.0 | 0.00 | 0.03 | 0.03 | 62 | |
| 20260905101750 | 65 | 306 | 7.0 | 8.0 | 0.00 | 0.03 | 0.03 | 64 | |
| 20260905100740 | 64 | 295 | 5.0 | 6.0 | 0.00 | 0.03 | 0.03 | 65 | |
| 20260905095729 | 64 | 319 | 5.0 | 5.0 | 0.00 | 0.03 | 0.03 | 67 | |
| 20260905093656 | 64 | 276 | 7.0 | 9.0 | 0.00 | 0.03 | 0.03 | 67 | |
| 20260905092644 | 64 | 286 | 8.0 | 9.0 | 0.00 | 0.03 | 0.03 | 68 | |
| 20260905091635 | 64 | 297 | 4.0 | 4.0 | 0.00 | 0.03 | 0.03 | 71 | |
| 20260905085600 | 64 | 282 | 10.0 | 11.0 | 0.00 | 0.03 | 0.03 | 73 | |
| 20260905084550 | 63 | 312 | 2.0 | 2.0 | 0.00 | 0.03 | 0.03 | 76 | |
| 20260905082517 | 62 | 294 | 5.0 | 5.0 | 0.00 | 0.03 | 0.03 | 76 | |
| 20260905081508 | 62 | 300 | 5.0 | 5.0 | 0.00 | 0.03 | 0.03 | 77 | |
| 20260905080456 | 62 | 300 | 2.0 | 2.0 | 0.00 | 0.03 | 0.03 | 77 | |
| 20260905074407 | 62 | 256 | 1.0 | 1.0 | 0.00 | 0.03 | 0.03 | 78 | |
| 20260905073354 | 63 | 264 | 9.0 | 10.0 | 0.00 | 0.03 | 0.03 | 75 | |
| 20260905072342 | 63 | 294 | 5.0 | 6.0 | 0.00 | 0.03 | 0.03 | 76 | |
| 20260905070311 | 62 | 314 | 2.0 | 2.0 | 0.00 | 0.03 | 0.03 | 77 | |
| 20260905065259 | 62 | 291 | 4.0 | 4.0 | 0.00 | 0.03 | 0.03 | 79 | |
| 20260905064248 | 62 | 302 | 2.0 | 2.0 | 0.00 | 0.03 | 0.03 | 80 | |
| 20260905062220 | 62 | 290 | 3.0 | 4.0 | 0.00 | 0.03 | 0.03 | 82 | |
| 20260905061211 | 61 | 324 | 9.0 | 9.0 | 0.00 | 0.03 | 0.03 | 81 | |
| 20260905060201 | 61 | 280 | 4.0 | 4.0 | 0.00 | 0.03 | 0.03 | 83 | |
| 20260905054124 | 61 | 256 | 5.0 | 5.0 | 0.00 | 0.03 | 0.03 | 81 | |
| 20260905053113 | 61 | 302 | 7.0 | 8.0 | 0.00 | 0.03 | 0.03 | 82 | |
| 20260905052101 | 61 | 285 | 8.0 | 10.0 | 0.00 | 0.03 | 0.03 | 82 | |
| 20260905050034 | 62 | 288 | 6.0 | 6.0 | 0.00 | 0.03 | 0.03 | 80 | |
| 20260905045024 | 62 | 300 | 4.0 | 5.0 | 0.00 | 0.03 | 0.03 | 77 | |
| 20260905044013 | 62 | 327 | 4.0 | 4.0 | 0.00 | 0.03 | 0.03 | 78 | |
| 20260905041940 | 62 | 282 | 5.0 | 5.0 | 0.00 | 0.03 | 0.03 | 77 | |
| 20260905040937 | 62 | 330 | 4.0 | 5.0 | 0.00 | 0.03 | 0.03 | 77 | |
| 20260905035928 | 62 | 312 | 4.0 | 4.0 | 0.00 | 0.03 | 0.03 | 77 | |
| 20260905033855 | 60 | 312 | 4.0 | 4.0 | 0.01 | 0.03 | 0.03 | 81 | |
| 20260905032831 | 60 | 238 | 3.0 | 3.0 | 0.01 | 0.03 | 0.03 | 85 | |
| 20260905031823 | 60 | 320 | 4.0 | 4.0 | 0.02 | 0.03 | 0.03 | 85 | |
| 20260905025748 | 59 | 224 | 3.0 | 4.0 | 0.03 | 0.03 | 0.03 | 87 | |
| 20260905024738 | 59 | 252 | 1.0 | 1.0 | 0.03 | 0.03 | 0.03 | 89 | |
| 20260905023726 | 59 | 60 | 1.0 | 1.0 | 0.02 | 0.02 | 0.02 | 89 | |
| 20260905021639 | 60 | 288 | 1.0 | 1.0 | 0.02 | 0.02 | 0.02 | 87 | |
| 20260905020628 | 62 | 294 | 4.0 | 4.0 | 0.01 | 0.01 | 0.01 | 79 | |
| 20260905015619 | 63 | 204 | 5.0 | 5.0 | 0.01 | 0.01 | 0.01 | 77 | |
| 20260905013546 | 66 | 330 | 6.0 | 6.0 | 0.00 | 0.00 | 0.00 | 66 | |
| 20260905012535 | 66 | 286 | 6.0 | 6.0 | 0.00 | 0.00 | 0.00 | 64 | |
| 20260905011512 | 67 | 276 | 7.0 | 9.0 | 0.00 | 0.00 | 0.00 | 63 | |
| 20260905005438 | 68 | 264 | 9.0 | 9.0 | 0.00 | 0.00 | 0.00 | 64 | |
| 20260905004428 | 68 | 290 | 5.0 | 6.0 | 0.00 | 0.00 | 0.00 | 65 | |
| 20260905003417 | 68 | 282 | 5.0 | 6.0 | 0.00 | 0.00 | 0.00 | 65 | |
| 20260905001341 | 69 | 288 | 6.0 | 8.0 | 0.00 | 0.00 | 0.00 | 66 | |
| 20260905000329 | 69 | 17 | 6.0 | 7.0 | 0.00 | 0.00 | 0.00 | 66 | |
| 20260904235322 | 70 | 262 | 5.0 | 5.0 | 0.00 | 0.00 | 0.00 | 66 | |
| 20260904233247 | 71 | 312 | 4.0 | 4.0 | 0.00 | 0.00 | 0.00 | 66 | |
| 20260904232237 | 71 | 275 | 2.0 | 2.0 | 0.00 | 0.00 | 0.00 | 65 | |
| 20260904231226 | 71 | 287 | 3.0 | 3.0 | 0.00 | 0.00 | 0.00 | 64 | |
| 20260904225150 | 72 | 290 | 4.0 | 4.0 | 0.00 | 0.00 | 0.00 | 61 | |
| 20260904224140 | 70 | 288 | 6.0 | 6.0 | 0.00 | 0.00 | 0.00 | 64 | |
| 20260904223128 | 71 | 149 | 0.0 | 0.0 | 0.00 | 0.00 | 0.00 | 65 | |
| 20260904221055 | 69 | 228 | 0.0 | 0.0 | 0.00 | 0.00 | 0.00 | 66 | |
| 20260904220046 | 69 | 223 | 0.0 | 0.0 | 0.00 | 0.00 | 0.00 | 67 |